{"data":{"norad_id":57864,"intl_designator":"2023-144A","name":"STARLINK-30432","alt_names":[],"object_type":"PAYLOAD","status":"ACTIVE","operator":null,"country":"US","launch_date":"2023-09-16","launch_site_code":"AFETR","launch_vehicle":null,"mission":null,"orbit_class":"UNKNOWN","rcs_meters":null,"size_class":null,"mass_kg":null,"dimensions":null,"purposes":["comms"],"wikipedia_slug":null,"has_3d_model":false,"image_url":null,"decayed_at":null,"tle_current":{"epoch":"2026-05-25T05:18:15.214752Z","epoch_age_seconds":56285,"freshness":"FRESH","line1":"1 57864U 23144A   26145.22100943 -.00000795  00000+0 -19377-4 0  9996","line2":"2 57864  42.9979 212.8512 0000715 282.0805  77.9966 15.27573927149300","mean_motion":15.27573927,"eccentricity":7.15e-5,"inclination_deg":42.9979,"raan_deg":212.8512,"arg_perigee_deg":282.0805,"mean_anomaly_deg":77.9966,"bstar":-1.9377e-5,"rev_number":14930,"period_min":94.267123479124,"perigee_km":482.57670474057,"apogee_km":483.55785695273,"semimajor_km":6861.2042808466,"source":"CELESTRAK","updated_at":"2026-05-25T13:38:18.444850Z"}}}